Weather History for KHSE - January, 2013

Change the Weather History Date:

Thursday, January 3, 2013

  Actual Average Record
Temperature  
Mean Temperature 42 °F 46 °F  
Max Temperature 44 °F 53 °F 71 °F (1966)
Min Temperature 40 °F 39 °F 16 °F (1918)
Degree Days  
Heating Degree Days 23 19  
Month to date heating degree days 56 57  
Since 1 July heating degree days 835 864  
Cooling Degree Days 0 0  
Month to date cooling degree days 0 0  
Year to date cooling degree days 0 0  
Moisture  
Dew Point 33 °F    
Average Humidity 74    
Maximum Humidity 82    
Minimum Humidity 65    
Precipitation  
Precipitation 0.01 in 0.16 in 1.98 in (1992)
Month to date precipitation 0.44 0.47  
Year to date precipitation 0.44 0.47  
Snow  
Snow 0.00 in - - ()
Month to date snowfall 0.0  
Since 1 July snowfall 0.0  
Snow Depth 0.00 in    
Sea Level Pressure  
Sea Level Pressure 30.18 in    
Wind  
Wind Speed 8 mph (NNE)    
Max Wind Speed 13 mph    
Max Gust Speed 21 mph    
Visibility 10 miles    
Events Rain    
T = Trace of Precipitation, MM = Missing Value Source: NWS Daily Summary

Daily Weather History Graph

Daily Weather History Graph

Search for Another Location

Airport or City:

Trip Planner

Search our weather history database for the weather conditions in past years. The results will help you decide how hot, cold, wet, or windy it might be!

Date:

Astronomy

Jan. 03, 2013 Rise Set
Actual Time 7:11 AM EST 5:03 PM EST
Civil Twilight 6:43 AM EST 5:31 PM EST
Nautical Twilight 6:11 AM EST 6:02 PM EST
Astronomical Twilight 5:40 AM EST 6:33 PM EST
Moon 11:20 PM EST (1/3) 10:36 AM EST (1/3)
Length of Visible Light 10h 47m
Length of Day
9h 51m
Waning Gibbous, 65% of the Moon is Illuminated
Jan 3
Waning Gibbous
Jan 4
Last Quarter
Jan 11
New
Jan 18
First Quarter
Jan 26
Full

Hourly Weather History & Observations

Time (EST) Temp. Windchill Dew Point Humidity Pressure Visibility Wind Dir Wind Speed Gust Speed Precip Events Conditions
12:51 AM 43.0 °F 38.2 °F 33.1 °F 68% 30.17 in 10.0 mi NNE 8.1 mph - N/A   Clear
1:51 AM 43.0 °F 38.2 °F 33.1 °F 68% 30.15 in 10.0 mi NE 8.1 mph 18.4 mph N/A   Clear
2:51 AM 43.0 °F 37.7 °F 33.1 °F 68% 30.15 in 10.0 mi NE 9.2 mph - N/A   Clear
3:51 AM 43.0 °F 37.7 °F 32.0 °F 65% 30.15 in 10.0 mi NE 9.2 mph - N/A   Clear
4:51 AM 42.1 °F 36.1 °F 32.0 °F 67% 30.14 in 10.0 mi NE 10.4 mph 18.4 mph N/A   Clear
5:51 AM 42.1 °F 36.1 °F 32.0 °F 67% 30.16 in 10.0 mi NNE 10.4 mph 18.4 mph N/A   Scattered Clouds
6:51 AM 42.1 °F 37.7 °F 33.1 °F 70% 30.18 in 10.0 mi Variable 6.9 mph - N/A   Clear
7:51 AM 43.0 °F 38.2 °F 33.1 °F 68% 30.18 in 10.0 mi NE 8.1 mph 17.3 mph N/A   Overcast
8:51 AM 43.0 °F 38.2 °F 34.0 °F 71% 30.20 in 10.0 mi NNE 8.1 mph - N/A   Overcast
9:51 AM 43.0 °F 38.2 °F 37.0 °F 80% 30.20 in 10.0 mi NE 8.1 mph - 0.00 in Rain Light Rain
10:51 AM 43.0 °F 37.2 °F 37.9 °F 82% 30.20 in 10.0 mi NNE 10.4 mph - 0.00 in Rain Light Rain
11:51 AM 43.0 °F 38.8 °F 36.0 °F 76% 30.19 in 10.0 mi Variable 6.9 mph - 0.00 in Rain Light Rain
12:51 PM 44.1 °F 40.8 °F 35.1 °F 71% 30.16 in 10.0 mi Variable 5.8 mph - 0.01 in   Overcast
1:51 PM 44.1 °F 40.1 °F 33.1 °F 65% 30.14 in 10.0 mi NNE 6.9 mph 16.1 mph N/A   Overcast
2:51 PM 44.1 °F 41.5 °F 33.1 °F 65% 30.14 in 10.0 mi Variable 4.6 mph - N/A   Overcast
3:51 PM 44.1 °F 41.5 °F 33.1 °F 65% 30.16 in 10.0 mi Variable 4.6 mph - N/A   Overcast
4:51 PM 43.0 °F 38.2 °F 33.1 °F 68% 30.17 in 10.0 mi NNE 8.1 mph - N/A   Overcast
5:51 PM 43.0 °F 37.7 °F 33.1 °F 68% 30.19 in 10.0 mi NNE 9.2 mph 16.1 mph N/A   Overcast
6:51 PM 43.0 °F 37.7 °F 34.0 °F 71% 30.22 in 10.0 mi NNE 9.2 mph 17.3 mph N/A   Overcast
7:51 PM 42.1 °F 37.7 °F 34.0 °F 73% 30.22 in 10.0 mi NNE 6.9 mph - N/A   Overcast
8:51 PM 42.1 °F 38.4 °F 34.0 °F 73% 30.23 in 10.0 mi NNE 5.8 mph - N/A   Mostly Cloudy
9:51 PM 41.0 °F 37.1 °F 32.0 °F 70% 30.23 in 10.0 mi Variable 5.8 mph - N/A   Clear
10:51 PM 39.9 °F 36.7 °F 32.0 °F 73% 30.23 in 10.0 mi Variable 4.6 mph - N/A   Clear
11:51 PM 39.9 °F 36.7 °F 30.9 °F 70% 30.23 in 10.0 mi Variable 4.6 mph - N/A   Clear